Location: ???????
(55.4362°N, 38.1183°E)
Time: 17:14:45
(UTC+00:00)

Cosmos 2333 Rocket - Pass Details

Date: 27 October 2021
Orbit: 837 x 865 km, 70.8° (Epoch: 04 December)

Event Time Altitude Azimuth Distance (km) Brightness Sun altitude
Exits shadow 01:10:30 54° 333° (NNW) 1,047 2.5 -27.5°
Maximum altitude 01:11:55 85° 56° (NE) 875 2.2 -27.3°
Drops below altitude 10° 01:17:42 10° 145° (SE) 2,504 4.8 -26.5°
Sets 01:20:10 0° 146° (SE) 3,438 5.6 -26.1°
